Nausori, Fiji

6:12 AM FJT on February 13, 2016 (GMT +1200)
Nausori International

Weather History for NFNA - January, 2000

Change the Weather History Date:

Tuesday, January 25, 2000

  Actual Average Record
Temperature  
Mean Temperature 80 °F -  
Max Temperature 84 °F - - ()
Min Temperature 77 °F - - ()
Cooling Degree Days 16    
Growing Degree Days 30 (Base 50)    
Moisture  
Dew Point 76 °F    
Average Humidity 92    
Maximum Humidity 100    
Minimum Humidity 79    
Precipitation  
Precipitation 0.00 in - - ()
Sea Level Pressure  
Sea Level Pressure 29.57 in    
Wind  
Wind Speed 12 mph ()    
Max Wind Speed 18 mph    
Max Gust Speed -    
Visibility 11.6 miles    
Events Rain    
T = Trace of Precipitation, MM = Missing Value Source: Averaged Metar Reports

Daily Weather History Graph

Daily Weather History Graph

Search for Another Location

Airport or City:

Trip Planner

Search our weather history database for the weather conditions in past years. The results will help you decide how hot, cold, wet, or windy it might be!

Date:

Astronomy

Jan. 25, 2000 Rise Set
Actual Time 6:47 AM FJST 7:47 PM FJST
Civil Twilight 6:24 AM FJST 8:10 PM FJST
Nautical Twilight 5:56 AM FJST 8:38 PM FJST
Astronomical Twilight 5:28 AM FJST 9:06 PM FJST
Moon 11:03 PM FJST (1/25) 10:24 AM FJST (1/25)
Length of Visible Light 13h 46m
Length of Day
12h 59m
Waning Gibbous, 82% of the Moon is Illuminated
Jan 25
Waning Gibbous
Jan 28
Last Quarter
Feb 6
New
Feb 13
First Quarter
Feb 20
Full

Hourly Weather History & Observations

Time (FJST) Temp. Heat Index Dew Point Humidity Pressure Visibility Wind Dir Wind Speed Gust Speed Precip Events Conditions
12:00 AM - - - N/A% 29.65 in 24.9 mi North 11.5 mph - N/A Rain Light Rain Showers
1:00 AM 78.8 °F - 77.0 °F 94% 29.62 in 18.6 mi NE 13.8 mph - N/A   Overcast
2:00 AM 78.8 °F - 77.0 °F 94% 29.62 in 15.5 mi North 13.8 mph - N/A Rain Rain Showers
3:00 AM 77.0 °F - 77.0 °F 100% 29.59 in 18.6 mi North 11.5 mph - N/A Rain Rain Showers
4:00 AM 77.0 °F - 75.2 °F 94% 29.56 in 15.5 mi NNE 13.8 mph - N/A Rain Light Rain Showers
5:00 AM 77.0 °F - 75.2 °F 94% 29.56 in 9.3 mi NNE 16.1 mph - N/A Rain Rain
6:00 AM 77.0 °F - 75.2 °F 94% 29.56 in 6.2 mi North 13.8 mph - N/A Rain Rain
7:00 AM 77.0 °F - 75.2 °F 94% 29.56 in 6.2 mi North 16.1 mph - N/A Rain Rain
7:20 AM 77.0 °F - 75.2 °F 94% 29.59 in 1.2 mi NNE 16.1 mph - N/A Rain Rain
8:00 AM 77.0 °F - 75.2 °F 94% 29.59 in 5.0 mi NNE 16.1 mph - N/A Rain Rain
9:00 AM 77.0 °F - 75.2 °F 94% 29.59 in 12.4 mi North 13.8 mph - N/A Rain Light Rain Showers
11:00 AM 80.6 °F 87.1 °F 77.0 °F 89% 29.56 in 24.9 mi NNE 13.8 mph - N/A   Overcast
12:00 PM 84.2 °F 96.1 °F 78.8 °F 84% 29.56 in 31.1 mi North 15.0 mph - N/A   Mostly Cloudy
1:00 PM 80.6 °F 87.1 °F 77.0 °F 89% 29.56 in 18.6 mi NNE 16.1 mph - N/A Rain Light Rain Showers
2:00 PM 80.6 °F 88.1 °F 78.8 °F 94% 29.53 in 24.9 mi NNE 13.8 mph - N/A   Overcast
3:00 PM 82.4 °F 89.5 °F 75.2 °F 79% 29.53 in 24.9 mi North 13.8 mph - N/A   Overcast
6:00 PM 78.8 °F - 75.2 °F 89% 29.53 in 24.9 mi North 18.4 mph - N/A Rain Light Rain
7:00 PM 78.8 °F - 77.0 °F 94% 29.56 in 24.9 mi NNE 13.8 mph - N/A Rain Light Rain
8:00 PM 78.8 °F - 77.0 °F 94% 29.56 in 24.9 mi NNE 15.0 mph - N/A   Overcast
9:00 PM 78.8 °F - 75.2 °F 89% 29.56 in 24.9 mi North 13.8 mph - N/A   Overcast
10:00 PM 78.8 °F - 75.2 °F 89% 29.59 in 24.9 mi North 13.8 mph - N/A   Mostly Cloudy